Simultaneous Nadir Overpasses (SNOs) Predictions

Prediction of SNOs between AQUA and METOP-A Satellite Orbit:

Table of predicted SNOs for the next 14.0 days since TLE Epoch: 8/9/2013
Index Date (AQUA) Time (AQUA) Lat,Lon (AQUA) SZA (AQUA ) Date (METOP-A) Time (METOP-A) Lat,Lon (METOP-A) SZA (METOP-A ) Distance(km) Time Diff (sec)
1 08/11/2013 10:28:09 73.29, 18.36 58.14 08/11/2013 10:27:02 73.25, 16.02 58.22 75.00 67
2 08/11/2013 11:17:45 -73.84,-175.18 121.26 08/11/2013 11:17:32 -73.85,-175.29 121.24 3.69 13
3 08/11/2013 12:07:14 73.91, -7.70 58.83 08/11/2013 12:08:10 73.93, -7.75 58.85 3.10 56
4 08/14/2013 06:02:30 73.61, 84.12 59.33 08/14/2013 06:01:19 73.58, 83.15 59.36 30.73 71
5 08/14/2013 06:52:01 -73.89,-108.85 120.36 08/14/2013 06:51:55 -73.87,-108.83 120.37 2.28 6
6 08/14/2013 07:41:30 73.97, 58.61 59.74 08/14/2013 07:42:33 73.95, 58.71 59.72 3.28 63
7 08/17/2013 01:36:48 73.79, 150.17 60.41 08/17/2013 01:35:38 73.79, 150.07 60.43 3.35 70
8 08/17/2013 02:26:16 -73.91, -42.45 119.46 08/17/2013 02:26:18 -73.89, -42.38 119.48 3.04 2
9 08/17/2013 03:15:44 73.94, 125.11 60.59 08/17/2013 03:16:57 73.92, 125.04 60.57 2.77 73
10 08/19/2013 21:11:02 73.83,-143.48 61.36 08/19/2013 21:10:00 73.81,-143.49 61.35 2.06 62
11 08/19/2013 22:00:29 -73.89, 24.02 118.57 08/19/2013 22:00:40 -73.90, 24.06 118.56 1.80 11
12 08/19/2013 22:50:03 74.24,-169.14 61.82 08/19/2013 22:51:13 74.23,-167.78 61.76 40.98 70
13 08/22/2013 16:45:16 73.84, -77.06 62.30 08/22/2013 16:44:23 73.82, -77.05 62.29 1.75 53
14 08/22/2013 17:34:43 -73.89, 90.45 117.63 08/22/2013 17:35:03 -73.91, 90.50 117.62 2.60 20




NCC Satellite Simultaneous Nadir Overpasses (SNOs) Prediction Service
